FW2442 Weather Reports


time (UTC)temp
F
wind
direction
speed
knots
gust
knots
rain 1hr
in
rain 24hr
in
rain mn
in
humidity
%
barometer
mb
20260901074541 76 124 13.9 22.6 0.00 0.00 0.00 50 1014.4
20260901073517 76 134 16.5 27.8 0.00 0.00 0.00 50 1014.3
20260901072521 76 127 13.9 20.0 0.00 0.00 0.00 49 1014.4
20260901071518 75 126 13.9 22.6 0.00 0.00 0.00 51 1014.4
20260901070522 74 112 14.8 21.7 0.00 0.00 0.00 53 1014.5
20260901065518 74 114 15.6 25.2 0.00 0.00 0.00 53 1014.4
20260901064521 73 109 15.6 24.3 0.00 0.00 0.00 54 1014.4
20260901063517 72 111 12.2 22.6 0.00 0.00 0.00 57 1014.3
20260901062521 72 101 13.9 18.2 0.00 0.00 0.00 57 1014.2
20260901061518 72 107 13.9 20.0 0.00 0.00 0.00 56 1014.3
20260901060520 71 117 10.4 19.1 0.00 0.00 0.00 56 1014.3
20260901055521 71 116 7.8 17.4 0.00 0.00 0.00 58 1014.3
20260901054521 70 118 11.3 15.6 0.00 0.00 0.00 58 1014.3
20260901053522 70 106 11.3 16.5 0.00 0.00 0.00 58 1014.3
20260901052542 70 101 11.3 17.4 0.00 0.00 0.00 57 1014.3
20260901051518 70 121 14.8 20.0 0.00 0.00 0.00 57 1014.4
20260901050517 70 117 13.9 20.9 0.00 0.00 0.00 55 1014.3
20260901045537 71 94 11.3 17.4 0.00 0.00 0.00 52 1014.2
20260901044522 71 122 10.4 17.4 0.00 0.00 0.00 53 1014.3
20260901043537 70 101 9.6 13.0 0.00 0.00 0.00 53 1014.3
20260901042521 68 98 12.2 18.2 0.00 0.00 0.00 55 1014.2
20260901041517 68 106 11.3 14.8 0.00 0.00 0.00 56 1014.2
20260901040521 67 105 11.3 17.4 0.00 0.00 0.00 56 1014.0
20260901035517 67 97 13.0 18.2 0.00 0.00 0.00 56 1014.0
20260901034518 67 110 12.2 14.8 0.00 0.00 0.00 56 1014.0
20260901033520 67 95 13.0 20.9 0.00 0.00 0.00 55 1013.8
20260901032520 66 97 7.0 11.3 0.00 0.00 0.00 56 1013.8
20260901031517 67 104 7.0 13.9 0.00 0.00 0.00 56 1013.7
20260901030522 66 120 9.6 13.9 0.00 0.00 0.00 56 1013.7
20260901025518 66 83 6.1 8.7 0.00 0.00 0.00 57 1013.8
20260901024542 67 163 3.5 6.1 0.00 0.00 0.00 55 1013.8
20260901023516 67 113 5.2 13.0 0.00 0.00 0.00 54 1013.9
20260901022519 67 107 4.3 11.3 0.00 0.00 0.00 55 1013.9
20260901021516 68 137 3.5 7.8 0.00 0.00 0.00 54 1014.0
20260901020521 69 145 6.1 10.4 0.00 0.00 0.00 51 1014.1
20260901015517 70 115 15.6 19.1 0.00 0.00 0.00 50 1014.1
20260901014542 70 108 13.9 18.2 0.00 0.00 0.00 50 1014.2
20260901013517 70 103 15.6 24.3 0.00 0.00 0.00 50 1014.3
20260901012520 70 109 14.8 22.6 0.00 0.00 0.00 50 1014.2
20260901011517 70 75 10.4 18.2 0.00 0.00 0.00 51 1014.2
20260901010520 70 102 9.6 14.8 0.00 0.00 0.00 51 1014.4
20260901005518 70 100 11.3 16.5 0.00 0.00 0.00 52 1014.4
20260901004522 70 104 11.3 19.1 0.00 0.00 0.00 52 1014.4
20260901003538 70 105 10.4 14.8 0.00 0.00 0.00 52 1014.4
20260901002521 70 109 13.0 18.2 0.00 0.00 0.00 52 1014.4
20260901001517 71 114 12.2 18.2 0.00 0.00 0.00 52 1014.4
20260901000541 71 124 9.6 13.0 0.00 0.00 0.00 52 1014.6
20260831235518 72 121 11.3 27.8 0.00 0.00 0.00 51 1014.6
20260831234520 72 121 12.2 20.0 0.00 0.00 0.00 51 1014.7
20260831233517 72 118 13.0 16.5 0.00 0.00 0.00 51 1014.7
20260831232521 73 118 12.2 20.0 0.00 0.00 0.00 51 1014.8
20260831231517 73 125 12.2 20.9 0.00 0.00 0.00 51 1014.9
20260831230517 73 126 13.0 24.3 0.00 0.00 0.00 52 1014.9
20260831225518 73 123 11.3 15.6 0.00 0.00 0.00 52 1015.0
20260831224521 73 122 12.2 24.3 0.00 0.00 0.00 52 1015.1
20260831223517 73 127 11.3 20.0 0.00 0.00 0.00 52 1015.3
20260831222522 73 124 14.8 28.7 0.00 0.00 0.00 53 1015.4
20260831221518 72 125 10.4 19.1 0.00 0.00 0.00 54 1015.4
20260831220516 72 124 10.4 16.5 0.00 0.00 0.00 54 1015.4
20260831215516 72 123 13.9 20.9 0.00 0.00 0.00 55 1015.5
20260831214523 72 119 8.7 18.2 0.00 0.00 0.00 54 1015.5
20260831213517 73 123 9.6 14.8 0.00 0.00 0.00 54 1015.5
20260831212539 73 118 11.3 18.2 0.00 0.00 0.00 53 1015.5
20260831211517 73 120 14.8 22.6 0.00 0.00 0.00 53 1015.5
20260831210541 73 132 11.3 19.1 0.00 0.00 0.00 53 1015.4
20260831205517 74 126 10.4 18.2 0.00 0.00 0.00 52 1015.4
20260831204517 74 123 10.4 21.7 0.00 0.00 0.00 52 1015.3
20260831203518 75 123 10.4 18.2 0.00 0.00 0.00 50 1015.3
20260831202519 75 121 10.4 13.9 0.00 0.00 0.00 50 1015.2
20260831201539 75 116 11.3 16.5 0.00 0.00 0.00 49 1015.1
20260831200519 75 112 9.6 17.4 0.00 0.00 0.00 48 1015.0
20260831195517 76 104 11.3 14.8 0.00 0.00 0.00 48 1014.9
20260831194519 76 109 11.3 14.8 0.00 0.00 0.00 47 1014.8
20260831193537 76 106 10.4 13.9 0.00 0.00 0.00 47 1014.8
20260831192517 76 114 9.6 12.2 0.00 0.00 0.00 47 1014.7
20260831191517 76 114 9.6 13.0 0.00 0.00 0.00 47 1014.7
20260831190522 77 108 9.6 13.0 0.00 0.00 0.00 47 1014.7
20260831185517 77 109 12.2 17.4 0.00 0.00 0.00 47 1014.8
20260831184522 77 108 11.3 14.8 0.00 0.00 0.00 47 1014.8
20260831183518 77 105 11.3 14.8 0.00 0.00 0.00 46 1014.7
20260831182558 78 108 10.4 13.0 0.00 0.00 0.00 46 1014.7
20260831181518 78 109 11.3 13.0 0.00 0.00 0.00 46 1014.7
20260831180521 78 118 9.6 13.9 0.00 0.00 0.00 46 1014.6
20260831175521 78 123 9.6 13.9 0.00 0.00 0.00 46 1014.6
20260831174522 79 119 7.8 13.0 0.00 0.00 0.00 46 1014.5
20260831173516 79 126 7.0 11.3 0.00 0.00 0.00 45 1014.4
20260831172523 80 125 7.8 9.6 0.00 0.00 0.00 45 1014.3
20260831171523 80 112 7.8 11.3 0.00 0.00 0.00 44 1014.1
20260831170522 81 117 7.8 11.3 0.00 0.00 0.00 44 1014.1
20260831165517 81 118 8.7 13.9 0.00 0.00 0.00 43 1014.1
20260831164521 82 116 7.8 13.0 0.00 0.00 0.00 42 1014.0
20260831163517 83 118 7.0 9.6 0.00 0.00 0.00 41 1013.9
20260831162541 84 132 7.0 10.4 0.00 0.00 0.00 40 1013.9
20260831161517 85 130 6.1 9.6 0.00 0.00 0.00 40 1013.9
20260831160521 86 137 7.0 11.3 0.00 0.00 0.00 39 1013.9
20260831155557 86 133 5.2 10.4 0.00 0.00 0.00 38 1014.0
20260831154521 87 129 8.7 14.8 0.00 0.00 0.00 37 1014.0
20260831153517 87 120 15.6 23.5 0.00 0.00 0.00 36 1014.1
20260831152522 88 120 14.8 25.2 0.00 0.00 0.00 36 1014.1
20260831151516 88 127 13.0 25.2 0.00 0.00 0.00 36 1014.0
20260831150521 88 126 13.9 20.9 0.00 0.00 0.00 36 1013.9
20260831145516 89 134 13.0 24.3 0.00 0.00 0.00 36 1014.0
20260831144520 89 126 12.2 26.1 0.00 0.00 0.00 36 1014.0
20260831143556 89 135 13.0 21.7 0.00 0.00 0.00 37 1014.1
20260831142519 89 115 12.2 20.0 0.00 0.00 0.00 35 1014.2
20260831141517 90 148 13.9 24.3 0.00 0.00 0.00 37 1014.2
20260831140518 90 140 11.3 16.5 0.00 0.00 0.00 36 1014.1
20260831135518 90 129 10.4 20.0 0.00 0.00 0.00 36 1014.1
20260831134522 90 118 13.0 19.1 0.00 0.00 0.00 37 1014.2
20260831133522 90 136 10.4 16.5 0.00 0.00 0.00 37 1014.4
20260831132520 90 133 13.0 22.6 0.00 0.00 0.00 37 1014.4
20260831131537 90 122 8.7 14.8 0.00 0.00 0.00 37 1014.4
20260831130541 90 123 9.6 27.8 0.00 0.00 0.00 38 1014.5
20260831125517 90 109 11.3 18.2 0.00 0.00 0.00 38 1014.5
20260831124521 90 138 10.4 24.3 0.00 0.00 0.00 38 1014.7
20260831123517 90 141 9.6 13.9 0.00 0.00 0.00 39 1014.7
20260831122522 90 116 9.6 18.2 0.00 0.00 0.00 39 1014.7
20260831121522 89 125 11.3 19.1 0.00 0.00 0.00 39 1015.0
20260831120542 89 153 11.3 24.3 0.00 0.00 0.00 40 1015.0
20260831115518 89 150 11.3 20.0 0.00 0.00 0.00 41 1015.1
20260831114518 88 115 18.2 26.1 0.00 0.00 0.00 40 1015.2
20260831113518 88 112 15.6 24.3 0.00 0.00 0.00 40 1015.2
20260831112521 89 146 12.2 18.2 0.00 0.00 0.00 41 1015.2
20260831111517 88 147 12.2 29.5 0.00 0.00 0.00 41 1015.3
20260831110541 88 148 19.1 35.6 0.00 0.00 0.00 41 1015.4
20260831105520 88 132 17.4 36.5 0.00 0.00 0.00 41 1015.5
20260831104521 88 117 13.9 26.1 0.00 0.00 0.00 41 1015.6
20260831103536 88 140 15.6 27.8 0.00 0.00 0.00 41 1015.7
20260831102522 87 135 13.9 27.8 0.00 0.00 0.00 42 1015.8
20260831101516 87 151 15.6 29.5 0.00 0.00 0.00 42 1015.9
20260831100520 86 119 16.5 29.5 0.00 0.00 0.00 42 1016.0
20260831095559 86 118 19.1 29.5 0.00 0.00 0.00 42 1016.0
20260831094520 86 115 13.9 27.8 0.00 0.00 0.00 42 1016.0
20260831093519 85 135 15.6 20.9 0.00 0.00 0.00 43 1016.1
20260831092522 85 124 20.0 26.9 0.00 0.00 0.00 43 1016.2
20260831091522 85 126 12.2 23.5 0.00 0.00 0.00 43 1016.1
20260831090520 85 155 16.5 36.5 0.00 0.00 0.00 44 1016.4
20260831085521 84 127 13.9 24.3 0.00 0.00 0.00 44 1016.5
20260831084521 84 137 17.4 26.1 0.00 0.00 0.00 44 1016.6
20260831083517 84 145 13.9 23.5 0.00 0.00 0.00 45 1016.7
20260831082521 83 127 14.8 26.9 0.00 0.00 0.00 45 1016.7
20260831081538 82 154 14.8 22.6 0.00 0.00 0.00 46 1016.8
20260831080558 82 159 13.9 24.3 0.00 0.00 0.00 47 1016.8
20260831075517 81 108 13.9 23.5 0.00 0.00 0.00 49 1016.8